When you browse on this site, cookies collect data to enhance your experience and personalize the content and advertising you see.
Visit our Privacy Policy to learn more. By continuing to use the site, you agree to this use of cookies and data.
  • en Suisse
  • Liste des pays
  • À 7 jours
  • Température de l'eau
  • Carte satellitaire
  • Carte météo
  • Widgets météo
  • user-avatar
    Se connecter

    Météo par heure à Côte de l'Or

    Ce jour, 23 Mars, Samedi

    Heure Température Précipitation Vent Pression Humidité
    00:00 +24°C° 0.7 mm 1 m/s 758 mmHg 93%
    01:00 +24°C° 0.7 mm 1 m/s 758 mmHg 93%
    02:00 +23°C° 0.5 mm 1 m/s 757 mmHg 94%
    03:00 +23°C° 0.5 mm 1 m/s 757 mmHg 95%
    04:00 +23°C° 0 mm 1 m/s 757 mmHg 95%
    05:00 +23°C° 0.1 mm 1 m/s 758 mmHg 95%
    06:00 +24°C° 0.1 mm 1 m/s 758 mmHg 94%
    07:00 +24°C° 0.1 mm 2 m/s 758 mmHg 94%
    08:00 +26°C° 0.1 mm 2 m/s 758 mmHg 84%
    09:00 +28°C° 0.1 mm 2 m/s 758 mmHg 74%
    10:00 +30°C° 0 mm 2 m/s 758 mmHg 63%
    11:00 +33°C° 0 mm 3 m/s 757 mmHg 56%
    12:00 +34°C° 0 mm 3 m/s 757 mmHg 50%
    13:00 +35°C° 0 mm 3 m/s 756 mmHg 43%
    14:00 +35°C° 0 mm 3 m/s 756 mmHg 47%
    15:00 +34°C° 0 mm 4 m/s 755 mmHg 50%
    16:00 +33°C° 0 mm 4 m/s 755 mmHg 56%
    17:00 +30°C° 0 mm 4 m/s 755 mmHg 65%
    18:00 +28°C° 0 mm 4 m/s 756 mmHg 74%
    19:00 +26°C° 0 mm 3 m/s 756 mmHg 84%
    20:00 +26°C° 0 mm 3 m/s 756 mmHg 86%
    21:00 +26°C° 0 mm 3 m/s 756 mmHg 87%
    22:00 +25°C° 0 mm 3 m/s 757 mmHg 90%
    23:00 +25°C° 0 mm 3 m/s 757 mmHg 90%

    Demain, 24 Mars, Dimanche

    Heure Température Précipitation Vent Pression Humidité
    00:00 +25°C° 0 mm 3 m/s 757 mmHg 90%
    01:00 +25°C° 0 mm 3 m/s 757 mmHg 90%
    02:00 +25°C° 0 mm 3 m/s 757 mmHg 90%
    03:00 +24°C° 0 mm 3 m/s 756 mmHg 90%
    04:00 +24°C° 0 mm 3 m/s 756 mmHg 90%
    05:00 +24°C° 0 mm 3 m/s 757 mmHg 87%
    06:00 +25°C° 0 mm 3 m/s 757 mmHg 85%
    07:00 +25°C° 0 mm 3 m/s 757 mmHg 83%
    08:00 +27°C° 0 mm 3 m/s 757 mmHg 73%
    09:00 +30°C° 0 mm 3 m/s 757 mmHg 62%
    10:00 +33°C° 0 mm 3 m/s 757 mmHg 52%
    11:00 +34°C° 0 mm 3 m/s 757 mmHg 48%
    12:00 +35°C° 0 mm 4 m/s 756 mmHg 44%
    13:00 +37°C° 0 mm 4 m/s 756 mmHg 40%
    14:00 +36°C° 0 mm 4 m/s 755 mmHg 44%
    15:00 +35°C° 0 mm 4 m/s 755 mmHg 48%
    16:00 +34°C° 0 mm 5 m/s 755 mmHg 52%
    17:00 +32°C° 0 mm 4 m/s 755 mmHg 60%
    18:00 +29°C° 0 mm 4 m/s 755 mmHg 67%
    19:00 +27°C° 0 mm 3 m/s 755 mmHg 75%
    20:00 +27°C° 0 mm 3 m/s 756 mmHg 77%
    21:00 +26°C° 0 mm 3 m/s 756 mmHg 79%
    22:00 +26°C° 0 mm 3 m/s 756 mmHg 81%
    23:00 +26°C° 0 mm 3 m/s 756 mmHg 82%

    Après-demain, 25 Mars, Lundi

    Heure Température Précipitation Vent Pression Humidité
    00:00 +25°C° 0 mm 3 m/s 756 mmHg 84%
    01:00 +25°C° 0 mm 3 m/s 756 mmHg 85%
    02:00 +25°C° 0 mm 3 m/s 756 mmHg 85%
    03:00 +25°C° 0 mm 3 m/s 756 mmHg 85%
    04:00 +24°C° 0 mm 3 m/s 756 mmHg 86%
    05:00 +25°C° 0 mm 3 m/s 757 mmHg 84%
    06:00 +25°C° 0 mm 3 m/s 757 mmHg 82%
    07:00 +25°C° 0 mm 3 m/s 757 mmHg 80%
    08:00 +27°C° 0 mm 3 m/s 757 mmHg 71%
    09:00 +29°C° 0 mm 4 m/s 758 mmHg 62%
    10:00 +32°C° 0 mm 4 m/s 758 mmHg 54%
    11:00 +33°C° 0 mm 4 m/s 757 mmHg 51%
    12:00 +34°C° 0 mm 4 m/s 757 mmHg 48%
    13:00 +35°C° 0 mm 5 m/s 756 mmHg 46%
    14:00 +34°C° 0 mm 5 m/s 756 mmHg 50%
    15:00 +33°C° 0 mm 4 m/s 755 mmHg 55%
    16:00 +32°C° 0 mm 4 m/s 755 mmHg 60%
    17:00 +29°C° 0 mm 4 m/s 756 mmHg 68%
    18:00 +28°C° 0 mm 4 m/s 756 mmHg 77%
    19:00 +26°C° 0 mm 3 m/s 756 mmHg 86%
    20:00 +26°C° 0 mm 3 m/s 757 mmHg 86%
    21:00 +26°C° 0 mm 3 m/s 757 mmHg 86%
    22:00 +26°C° 0 mm 3 m/s 758 mmHg 86%
    23:00 +26°C° 0 mm 3 m/s 757 mmHg 87%

    26 Mars, Mardi

    Heure Température Précipitation Vent Pression Humidité
    00:00 +26°C° 0 mm 4 m/s 757 mmHg 88%
    01:00 +26°C° 0 mm 4 m/s 757 mmHg 89%
    02:00 +26°C° 0 mm 4 m/s 757 mmHg 89%
    03:00 +26°C° 0 mm 4 m/s 757 mmHg 88%
    04:00 +26°C° 0 mm 4 m/s 756 mmHg 88%
    05:00 +26°C° 0 mm 4 m/s 757 mmHg 87%
    06:00 +26°C° 0 mm 3 m/s 758 mmHg 86%
    07:00 +26°C° 0 mm 3 m/s 758 mmHg 86%
    08:00 +28°C° 0 mm 3 m/s 758 mmHg 75%
    09:00 +29°C° 0 mm 3 m/s 758 mmHg 65%
    10:00 +31°C° 0 mm 3 m/s 759 mmHg 55%
    11:00 +32°C° 0 mm 2 m/s 758 mmHg 53%
    12:00 +32°C° 0 mm 2 m/s 758 mmHg 51%
    13:00 +34°C° 0 mm 2 m/s 757 mmHg 50%
    14:00 +31°C° 0.2 mm 2 m/s 757 mmHg 60%
    15:00 +29°C° 0.2 mm 3 m/s 757 mmHg 70%
    16:00 +27°C° 0.2 mm 3 m/s 757 mmHg 80%
    17:00 +26°C° 0 mm 3 m/s 757 mmHg 81%
    18:00 +26°C° 0 mm 3 m/s 758 mmHg 81%
    19:00 +26°C° 0 mm 3 m/s 759 mmHg 82%
    20:00 +26°C° 0.3 mm 3 m/s 759 mmHg 85%
    21:00 +25°C° 0.3 mm 4 m/s 760 mmHg 88%
    22:00 +25°C° 0.3 mm 4 m/s 760 mmHg 91%
    23:00 +25°C° 0.7 mm 4 m/s 760 mmHg 92%

    27 Mars, Mercredi

    Heure Température Précipitation Vent Pression Humidité
    00:00 +23°C° 0.7 mm 5 m/s 759 mmHg 93%
    01:00 +23°C° 0.7 mm 5 m/s 759 mmHg 94%
    02:00 +23°C° 1.1 mm 5 m/s 759 mmHg 94%
    03:00 +23°C° 1.1 mm 4 m/s 759 mmHg 95%
    04:00 +22°C° 1.1 mm 4 m/s 759 mmHg 95%
    05:00 +22°C° 2.2 mm 4 m/s 759 mmHg 95%
    06:00 +22°C° 2.2 mm 4 m/s 760 mmHg 95%
    07:00 +22°C° 2.2 mm 4 m/s 761 mmHg 95%
    08:00 +22°C° 0.5 mm 4 m/s 761 mmHg 95%
    09:00 +22°C° 0.5 mm 4 m/s 761 mmHg 94%
    10:00 +24°C° 0.5 mm 3 m/s 761 mmHg 94%
    11:00 +24°C° 0.3 mm 3 m/s 761 mmHg 92%
    12:00 +25°C° 0.3 mm 3 m/s 760 mmHg 90%
    13:00 +25°C° 0.3 mm 3 m/s 760 mmHg 87%
    14:00 +25°C° 0.5 mm 3 m/s 760 mmHg 89%
    15:00 +25°C° 0.5 mm 4 m/s 759 mmHg 90%
    16:00 +23°C° 0.5 mm 4 m/s 759 mmHg 91%
    17:00 +23°C° 0.8 mm 4 m/s 759 mmHg 92%
    18:00 +23°C° 0.8 mm 4 m/s 760 mmHg 93%
    19:00 +22°C° 0.8 mm 4 m/s 760 mmHg 94%
    20:00 +22°C° 1.1 mm 4 m/s 760 mmHg 94%
    21:00 +22°C° 1.1 mm 4 m/s 760 mmHg 94%
    22:00 +22°C° 1.1 mm 4 m/s 760 mmHg 95%
    23:00 +22°C° 1.5 mm 4 m/s 760 mmHg 95%

    28 Mars, Jeudi

    Heure Température Précipitation Vent Pression Humidité
    00:00 +22°C° 1.5 mm 4 m/s 759 mmHg 95%
    01:00 +22°C° 1.5 mm 4 m/s 759 mmHg 95%
    02:00 +22°C° 1 mm 4 m/s 759 mmHg 95%
    03:00 +22°C° 1 mm 4 m/s 758 mmHg 95%
    04:00 +22°C° 1 mm 4 m/s 758 mmHg 95%
    05:00 +22°C° 1 mm 4 m/s 758 mmHg 95%
    06:00 +22°C° 1 mm 4 m/s 759 mmHg 95%
    07:00 +22°C° 1 mm 3 m/s 759 mmHg 95%
    08:00 +22°C° 1 mm 4 m/s 759 mmHg 94%
    09:00 +23°C° 1 mm 4 m/s 759 mmHg 93%
    10:00 +23°C° 1 mm 4 m/s 759 mmHg 93%
    11:00 +23°C° 0.9 mm 4 m/s 759 mmHg 92%
    12:00 +23°C° 0.9 mm 4 m/s 758 mmHg 92%
    13:00 +23°C° 0.9 mm 4 m/s 757 mmHg 92%
    14:00 +23°C° 1.1 mm 4 m/s 757 mmHg 93%
    15:00 +22°C° 1.1 mm 4 m/s 757 mmHg 93%
    16:00 +22°C° 1.1 mm 5 m/s 757 mmHg 94%
    17:00 +22°C° 2 mm 5 m/s 757 mmHg 94%
    18:00 +22°C° 2 mm 5 m/s 757 mmHg 95%
    19:00 +22°C° 2 mm 5 m/s 758 mmHg 95%
    20:00 +22°C° 1.1 mm 5 m/s 758 mmHg 95%
    21:00 +22°C° 1.1 mm 5 m/s 758 mmHg 94%
    22:00 +22°C° 1.1 mm 5 m/s 757 mmHg 94%
    23:00 +22°C° 0.4 mm 5 m/s 757 mmHg 94%
    Voir plus